Volver al catálogo

STARLINK-11085

ActivoComunicacionesVLEO
NORAD 59425·PAYLOAD·🇺🇸 United States

Lanzado Apr 7, 2024 desde Vandenberg Space Force Base

Loading…

Próximos Pases (próximas 24 horas)

TLE

ActualizadoSource: CelesTrak SupGP

Época: Sep 14, 2026, 22:35 UTC

1 59425C 24065E   26257.94145833  .00073526  00000+0  60548-3 0  2576
2 59425  53.1572 240.8471 0001169  93.0730  81.4690 15.69680057    11

Sigue STARLINK-11085 en tiempo real con AllMySat

Download on the App Store